This is the latest recevied weather packets stored in our database for station/object K0QED. If no packets are shown the sender has not sent any weather packets the latest 10 day(s).
| Time | Temp. | Humidity | Pressure | Rain* | Wind** | Luminosity | Snow |
|---|---|---|---|---|---|---|---|
| 1787922649 | 13.89° C | 71% | 1030 hPa | 0 mm | - | 19 W/m² | - |
| 1787922340 | 13.89° C | 69% | 1029.7 hPa | 0 mm | - | 16 W/m² | - |
| 1787922037 | 13.89° C | 69% | 1029.7 hPa | 0 mm | - | 14 W/m² | - |
| 1787921732 | 13.33° C | 69% | 1029.7 hPa | 0 mm | - | 12 W/m² | - |
| 1787921431 | 12.78° C | 69% | 1029.7 hPa | 0 mm | - | 11 W/m² | - |
| 1787921126 | 12.78° C | 71% | 1030 hPa | 0 mm | - | 8 W/m² | - |
| 1787920821 | 13.33° C | 70% | 1029.9 hPa | 0 mm | - | 6 W/m² | - |
| 1787920516 | 13.33° C | 69% | 1029.5 hPa | 0 mm | - | 3 W/m² | - |
| 1787920216 | 13.33° C | 70% | 1029.6 hPa | 0 mm | - | 2 W/m² | - |
| 1787919909 | 13.33° C | 70% | 1029.6 hPa | 0 mm | - | 0 W/m² | - |
| 1787919617 | 12.78° C | 72% | 1029.7 hPa | 0 mm | - | 0 W/m² | - |
| 1787919303 | 12.78° C | 74% | 1029.7 hPa | 0 mm | - | 0 W/m² | - |
| 1787918999 | 12.78° C | 73% | 1029.7 hPa | 0 mm | - | 0 W/m² | - |
| 1787918693 | 12.78° C | 73% | 1029.6 hPa | 0 mm | - | 0 W/m² | - |
| 1787918391 | 12.78° C | 73% | 1029.5 hPa | 0 mm | - | 0 W/m² | - |
| 1787918086 | 13.33° C | 71% | 1029.5 hPa | 0 mm | - | 0 W/m² | - |
| 1787917780 | 13.89° C | 68% | 1029.7 hPa | 0 mm | - | 0 W/m² | - |
| 1787917478 | 13.89° C | 67% | 1029.5 hPa | 0 mm | - | 0 W/m² | - |
| 1787917173 | 13.89° C | 68% | 1029.4 hPa | 0 mm | - | 0 W/m² | - |
| 1787916873 | 13.89° C | 62% | 1029.2 hPa | 0 mm | - | 0 W/m² | - |
| 1787916572 | 14.44° C | 62% | 1029.5 hPa | 0 mm | - | 0 W/m² | - |
| 1787916267 | 14.44° C | 59% | 1029.4 hPa | 0 mm | - | 0 W/m² | - |
| 1787915962 | 13.89° C | 59% | 1029.6 hPa | 0 mm | - | 0 W/m² | - |
| 1787915658 | 15° C | 59% | 1029.1 hPa | 0 mm | - | 0 W/m² | - |
| 1787915358 | 15.56° C | 53% | 1029.2 hPa | 0 mm | - | 0 W/m² | - |
* Rain latest hour (hover to see other rain measurements)
** Current wind speed in m/s (hover to see current wind gust speed)